When you browse on this site, cookies collect data to enhance your experience and personalize the content and advertising you see.
Visit our Privacy Policy to learn more. By continuing to use the site, you agree to this use of cookies and data.
  • In Österreich
  • Länderverzeichnis
  • Für 7 Tage
  • Wassertemperatur
  • Satellitenkarten
  • Wetterkarte
  • News
  • Widgets
  • user-avatar
    Anmelden

    Stündliche Wetter Kursko

    Heute, 16 Februar, Samstag

    Zeit Temperatur Niederschläge Wind Luftdruck Luftfeuchtigkeit
    00:00 +4°C° 0 mm 1 m/S 766 mmHg 78%
    01:00 +4°C° 0 mm 1 m/S 765 mmHg 77%
    02:00 +4°C° 0 mm 1 m/S 765 mmHg 76%
    03:00 +3°C° 0 mm 2 m/S 765 mmHg 76%
    04:00 +3°C° 0 mm 2 m/S 764 mmHg 76%
    05:00 +3°C° 0 mm 2 m/S 764 mmHg 76%
    06:00 +3°C° 0 mm 2 m/S 764 mmHg 77%
    07:00 +2°C° 0 mm 2 m/S 764 mmHg 76%
    08:00 +3°C° 0 mm 3 m/S 764 mmHg 70%
    09:00 +4°C° 0 mm 3 m/S 763 mmHg 64%
    10:00 +7°C° 0 mm 3 m/S 763 mmHg 58%
    11:00 +8°C° 0 mm 3 m/S 763 mmHg 54%
    12:00 +10°C° 0 mm 4 m/S 763 mmHg 49%
    13:00 +13°C° 0 mm 3 m/S 763 mmHg 44%
    14:00 +12°C° 0 mm 3 m/S 762 mmHg 46%
    15:00 +12°C° 0 mm 3 m/S 762 mmHg 48%
    16:00 +12°C° 0 mm 3 m/S 761 mmHg 50%
    17:00 +11°C° 0 mm 3 m/S 761 mmHg 56%
    18:00 +9°C° 0 mm 3 m/S 761 mmHg 62%
    19:00 +8°C° 0 mm 3 m/S 761 mmHg 68%
    20:00 +7°C° 0 mm 3 m/S 761 mmHg 70%
    21:00 +7°C° 0 mm 3 m/S 761 mmHg 72%
    22:00 +5°C° 0 mm 3 m/S 761 mmHg 74%
    23:00 +5°C° 0 mm 3 m/S 761 mmHg 77%

    Morgen, 17 Februar, Sonntag

    Zeit Temperatur Niederschläge Wind Luftdruck Luftfeuchtigkeit
    00:00 +4°C° 0 mm 3 m/S 762 mmHg 80%
    01:00 +4°C° 0 mm 3 m/S 762 mmHg 82%
    02:00 +4°C° 0 mm 2 m/S 762 mmHg 84%
    03:00 +4°C° 0 mm 2 m/S 762 mmHg 86%
    04:00 +3°C° 0 mm 2 m/S 761 mmHg 88%
    05:00 +3°C° 0 mm 2 m/S 761 mmHg 89%
    06:00 +3°C° 0 mm 2 m/S 762 mmHg 90%
    07:00 +2°C° 0 mm 2 m/S 762 mmHg 91%
    08:00 +4°C° 0 mm 2 m/S 762 mmHg 85%
    09:00 +5°C° 0 mm 2 m/S 762 mmHg 80%
    10:00 +6°C° 0 mm 2 m/S 762 mmHg 74%
    11:00 +8°C° 0 mm 2 m/S 762 mmHg 69%
    12:00 +9°C° 0 mm 2 m/S 762 mmHg 64%
    13:00 +10°C° 0 mm 2 m/S 762 mmHg 59%
    14:00 +11°C° 0 mm 1 m/S 761 mmHg 59%
    15:00 +11°C° 0 mm 1 m/S 761 mmHg 60%
    16:00 +11°C° 0 mm 1 m/S 761 mmHg 61%
    17:00 +10°C° 0 mm 1 m/S 761 mmHg 65%
    18:00 +9°C° 0 mm 1 m/S 761 mmHg 68%
    19:00 +8°C° 0 mm 1 m/S 761 mmHg 72%
    20:00 +7°C° 0 mm 1 m/S 761 mmHg 73%
    21:00 +7°C° 0 mm 1 m/S 761 mmHg 75%
    22:00 +6°C° 0 mm 1 m/S 760 mmHg 76%
    23:00 +5°C° 0 mm 2 m/S 760 mmHg 77%

    übermorgen, 18 Februar, Montag

    Zeit Temperatur Niederschläge Wind Luftdruck Luftfeuchtigkeit
    00:00 +5°C° 0 mm 2 m/S 760 mmHg 78%
    01:00 +4°C° 0 mm 2 m/S 760 mmHg 78%
    02:00 +4°C° 0 mm 2 m/S 760 mmHg 78%
    03:00 +3°C° 0 mm 2 m/S 760 mmHg 78%
    04:00 +3°C° 0 mm 2 m/S 759 mmHg 78%
    05:00 +3°C° 0 mm 2 m/S 759 mmHg 79%
    06:00 +3°C° 0 mm 2 m/S 759 mmHg 80%
    07:00 +2°C° 0 mm 2 m/S 759 mmHg 81%
    08:00 +4°C° 0 mm 2 m/S 759 mmHg 74%
    09:00 +5°C° 0 mm 2 m/S 759 mmHg 68%
    10:00 +6°C° 0 mm 2 m/S 759 mmHg 62%
    11:00 +8°C° 0 mm 2 m/S 759 mmHg 57%
    12:00 +9°C° 0 mm 2 m/S 759 mmHg 52%
    13:00 +12°C° 0 mm 2 m/S 758 mmHg 48%
    14:00 +12°C° 0 mm 2 m/S 758 mmHg 49%
    15:00 +12°C° 0 mm 2 m/S 758 mmHg 50%
    16:00 +12°C° 0 mm 2 m/S 757 mmHg 51%
    17:00 +9°C° 0 mm 2 m/S 757 mmHg 57%
    18:00 +8°C° 0 mm 2 m/S 757 mmHg 62%
    19:00 +7°C° 0 mm 2 m/S 757 mmHg 67%
    20:00 +6°C° 0 mm 2 m/S 757 mmHg 68%
    21:00 +6°C° 0 mm 2 m/S 757 mmHg 70%
    22:00 +5°C° 0 mm 2 m/S 757 mmHg 72%
    23:00 +4°C° 0 mm 3 m/S 757 mmHg 73%

    19 Februar, Dienstag

    Zeit Temperatur Niederschläge Wind Luftdruck Luftfeuchtigkeit
    00:00 +4°C° 0 mm 3 m/S 757 mmHg 74%
    01:00 +4°C° 0 mm 3 m/S 756 mmHg 75%
    02:00 +3°C° 0 mm 3 m/S 756 mmHg 77%
    03:00 +3°C° 0 mm 3 m/S 756 mmHg 79%
    04:00 +3°C° 0 mm 3 m/S 755 mmHg 80%
    05:00 +3°C° 0 mm 3 m/S 755 mmHg 80%
    06:00 +2°C° 0 mm 3 m/S 755 mmHg 79%
    07:00 +2°C° 0 mm 3 m/S 755 mmHg 78%
    08:00 +4°C° 0 mm 4 m/S 755 mmHg 72%
    09:00 +5°C° 0 mm 4 m/S 755 mmHg 66%
    10:00 +6°C° 0 mm 5 m/S 755 mmHg 60%
    11:00 +7°C° 0 mm 5 m/S 754 mmHg 58%
    12:00 +8°C° 0 mm 5 m/S 754 mmHg 56%
    13:00 +10°C° 0 mm 6 m/S 754 mmHg 54%
    14:00 +9°C° 0.2 mm 6 m/S 754 mmHg 62%
    15:00 +8°C° 0.2 mm 6 m/S 754 mmHg 70%
    16:00 +7°C° 0.2 mm 6 m/S 754 mmHg 79%
    17:00 +6°C° 0.1 mm 5 m/S 754 mmHg 80%
    18:00 +6°C° 0.1 mm 5 m/S 755 mmHg 82%
    19:00 +5°C° 0.1 mm 4 m/S 755 mmHg 84%
    20:00 +5°C° 0 mm 4 m/S 756 mmHg 84%
    21:00 +4°C° 0 mm 4 m/S 756 mmHg 84%
    22:00 +4°C° 0 mm 4 m/S 756 mmHg 85%
    23:00 +4°C° 0 mm 4 m/S 757 mmHg 85%

    20 Februar, Mittwoch

    Zeit Temperatur Niederschläge Wind Luftdruck Luftfeuchtigkeit
    00:00 +4°C° 0 mm 4 m/S 757 mmHg 86%
    01:00 +3°C° 0 mm 4 m/S 757 mmHg 87%
    02:00 +3°C° 0 mm 4 m/S 757 mmHg 88%
    03:00 +3°C° 0 mm 4 m/S 757 mmHg 90%
    04:00 +1°C° 0 mm 4 m/S 757 mmHg 91%
    05:00 +1°C° 0 mm 4 m/S 758 mmHg 92%
    06:00 +1°C° 0 mm 4 m/S 758 mmHg 92%
    07:00 +1°C° 0 mm 4 m/S 758 mmHg 92%
    08:00 +1°C° 0 mm 4 m/S 759 mmHg 88%
    09:00 +2°C° 0 mm 5 m/S 759 mmHg 83%
    10:00 +3°C° 0 mm 5 m/S 759 mmHg 79%
    11:00 +5°C° 0 mm 5 m/S 759 mmHg 74%
    12:00 +6°C° 0 mm 5 m/S 759 mmHg 70%
    13:00 +7°C° 0 mm 5 m/S 760 mmHg 65%
    14:00 +7°C° 0 mm 5 m/S 760 mmHg 67%
    15:00 +7°C° 0 mm 4 m/S 760 mmHg 68%
    16:00 +7°C° 0 mm 4 m/S 760 mmHg 69%
    17:00 +7°C° 0 mm 3 m/S 760 mmHg 73%
    18:00 +7°C° 0 mm 3 m/S 760 mmHg 76%
    19:00 +7°C° 0 mm 3 m/S 760 mmHg 79%
    20:00 +5°C° 0 mm 3 m/S 761 mmHg 82%
    21:00 +5°C° 0 mm 3 m/S 761 mmHg 84%
    22:00 +4°C° 0 mm 3 m/S 761 mmHg 87%
    23:00 +4°C° 0 mm 3 m/S 761 mmHg 88%

    21 Februar, Donnerstag

    Zeit Temperatur Niederschläge Wind Luftdruck Luftfeuchtigkeit
    00:00 +4°C° 0 mm 3 m/S 761 mmHg 88%
    01:00 +4°C° 0 mm 3 m/S 761 mmHg 89%
    02:00 +4°C° 0.2 mm 3 m/S 761 mmHg 89%
    03:00 +4°C° 0.2 mm 3 m/S 761 mmHg 89%
    04:00 +4°C° 0.2 mm 3 m/S 760 mmHg 89%
    05:00 +4°C° 0.2 mm 3 m/S 760 mmHg 89%
    06:00 +4°C° 0.2 mm 3 m/S 760 mmHg 89%
    07:00 +4°C° 0.2 mm 3 m/S 760 mmHg 89%
    08:00 +5°C° 0 mm 3 m/S 760 mmHg 85%
    09:00 +5°C° 0 mm 4 m/S 760 mmHg 80%
    10:00 +6°C° 0 mm 4 m/S 760 mmHg 76%
    11:00 +7°C° 0 mm 4 m/S 760 mmHg 75%
    12:00 +7°C° 0 mm 4 m/S 760 mmHg 74%
    13:00 +8°C° 0 mm 5 m/S 760 mmHg 72%
    14:00 +7°C° 0.4 mm 5 m/S 759 mmHg 77%
    15:00 +7°C° 0.4 mm 5 m/S 759 mmHg 82%
    16:00 +6°C° 0.4 mm 5 m/S 759 mmHg 86%
    17:00 +6°C° 0.3 mm 4 m/S 759 mmHg 87%
    18:00 +6°C° 0.3 mm 4 m/S 759 mmHg 87%
    19:00 +7°C° 0.3 mm 3 m/S 759 mmHg 88%
    20:00 +6°C° 0.1 mm 4 m/S 759 mmHg 89%
    21:00 +6°C° 0.1 mm 4 m/S 759 mmHg 89%
    22:00 +6°C° 0.1 mm 4 m/S 759 mmHg 90%
    23:00 +6°C° 0.9 mm 4 m/S 759 mmHg 91%
    Mehr zeigen